Flag for Pakistan Weather past 2 weeks in Islamabad, Pakistan

Now
72 °F

Clear.


Feels Like: 74 °F
Forecast: 58 / 90 °F
Wind: 5 mph from Northeast

Location: Islamabad Airport

Current Time: Oct 21, 2014 at 10:11:21 PM

Latest Report: Oct 21, 2014 at 9:00 PM


Visibility: 4 mi

Pressure: 30.07 "Hg

Humidity: 73%

Dew point: 63 °F

Location of IslamabadLocation

Historic Weather in Islamabad — Graph

°F

Islamabad temperature yesterday

Maximum temperature yesterday: 82 °F (at 2:00 PM)
Minimum temperature yesterday: 64 °F (at 5:00 AM)
Average temperature yesterday: 73 °F

Past Weeks' High & Low Weather Summary

 TemperatureHumidityPressure
High91 °F (Oct 12, 3:00 PM)94% (Oct 19, 6:00 AM)30.15 "Hg (Oct 19, 6:00 AM)
Low57 °F (Oct 16, 7:00 AM)28% (Oct 15, 8:00 PM)29.80 "Hg (Oct 7, 4:00 PM)
Average72 °F65%29.99 "Hg
* Reported Oct 6 9:00 PM — Oct 21 9:00 PM, Islamabad, Weather by CustomWeather, © 2014

Note: Actual official high and low records may vary slightly from our data, if they occured in-between our weather recording intervals... More about our weather records

Advertising

Islamabad weather history for previous 24 hours

 ConditionsComfort  
Time TempWeatherWind HumidityBarometerVisibility
9:00 PM
Oct 21
72 °FClear.5 mph73%30.07 "Hg4 mi
8:00 PM73 °FClear.7 mph69%30.07 "Hg4 mi
6:00 PM81 °FClear.No wind58%30.01 "Hg4 mi
5:00 PM84 °FSunny.No wind55%30.01 "Hg4 mi
4:00 PM86 °FSunny.5 mph49%29.98 "Hg4 mi
2:00 PM86 °FSunny.No wind49%30.01 "Hg4 mi
1:00 PM84 °FSunny.No wind48%30.04 "Hg4 mi
12:00 PM81 °FSunny.No wind54%30.07 "Hg4 mi
11:00 AM79 °FSunny.No wind58%30.09 "Hg4 mi
10:00 AM70 °FSunny.No wind64%30.09 "Hg4 mi
9:00 AM70 °FSunny.No wind69%30.09 "Hg4 mi
8:00 AM63 °FPassing clouds.No wind77%30.07 "Hg4 mi
7:00 AM61 °FPassing clouds.No wind83%30.04 "Hg4 mi
6:00 AM61 °FPassing clouds.No wind83%30.04 "Hg4 mi
5:00 AM63 °FClear.No wind83%30.04 "Hg4 mi
4:00 AM63 °FClear.5 mph83%30.01 "Hg4 mi
3:00 AM64 °FClear.5 mph78%30.04 "Hg4 mi
2:00 AM64 °FClear.No wind78%30.04 "Hg4 mi
1:00 AM64 °FClear.No wind78%30.04 "Hg4 mi
12:00 AM66 °FClear.5 mph73%30.04 "Hg4 mi
11:00 PM
Oct 20
68 °FClear.5 mph69%30.04 "Hg10 mi
10:00 PM68 °FClear.5 mph69%30.07 "Hg10 mi
Weather by CustomWeather, © 2014

See weather overviewHow to use our weather pages